Location: Newark
(13.0328°N, 9.6142°E)
Time: 18:18:48
(UTC+00:00)

OTV 5 (USA 277) - Pass Details

Date: 23 October 2019
Orbit: 310 x 324 km, 54.5° (Epoch: 17 October)

Event Time Altitude Azimuth Distance (km) Brightness Sun altitude
Rises 17:18:23 0° 183° (S) 2,032 ? -5.6°
Reaches altitude 10° 17:21:00 10° 154° (SSE) 1,208 ? -6.2°
Maximum altitude 17:22:26 14° 121° (ESE) 1,036 ? -6.5°
Drops below altitude 10° 17:23:53 10° 89° (E) 1,213 ? -6.9°
Enters shadow 17:24:09 - 84° (E) 1,274 ? -6.9°
